Weather in Venice

Italy     45˚26′15″N   12˚19′09″E
temp.,
°C
wind,
m/s
gust,
m/s
humid.,
%
clouds,
%
prec.,
mm/h
press.,
hPa
HPBL,
m
27 november, fri
fri2701:00+6˚nne227677 0.0 102349
04:00+5˚n228073 0.0 102347
07:00+4˚nne228237 0.0 102347
10:00+7˚nne23740 0.0 1023147
13:00+9˚ne21670 0.0 1022344
16:00+9˚ne12732 0.0 102177
19:00+8˚nne237621 0.0 1022100
22:00+8˚nne3475100 0.0 1023138
28 november, sat
sat2801:00+7˚nne3480100 0.1 1021154
04:00+7˚nne2380100 0.0 1020132
07:00+8˚nne2376100 0.0 1019127
10:00+8˚ne2470100 0.0 1019178
13:00+9˚ne1265100 0.0 1017156
16:00+9˚n2267100 0.0 101677
19:00+9˚n3468100 0.0 1016127
22:00+9˚ne3674100 0.2 1017187
29 november, sun
sun2901:00+9˚ne4787100 1.1 1017262
04:00+9˚ne5891100 1.0 1016392
07:00+8˚ne588198 1.1 1016311
10:00+9˚ne466975 0.0 1016418
13:00+11˚e346038 0.0 1016498
16:00+10˚nnw11640 0.0 101684
19:00+8˚nne22680 0.0 101888
22:00+7˚ne34760 0.0 1019130
30 november, mon
mon3001:00+6˚ne34752 0.0 1020124
04:00+4˚ne34759 0.0 1021114
07:00+4˚ne467218 0.0 1022170
10:00+6˚ne456462 0.0 1023275
13:00+8˚ne335244 0.0 1023469
16:00+7˚ne23560 0.0 1024149
19:00+5˚nne34620 0.0 1025120
22:00+4˚ne34690 0.0 1026102
1 december, tue
tue101:00+3˚ne34700 0.0 102690
04:00+3˚nne23700 0.0 102574
07:00+2˚nne22690 0.0 102560
10:00+4˚nne11620 0.0 1023139
13:00+7˚w016016 0.0 1021387
16:00+6˚ene1168100 0.0 102079
19:00+4˚n117484 0.0 102171
22:00+4˚nne22790 0.0 102166